[[{"header":{"parameterUnit":"m.s-1","parameterCategory":1,"la1":30.2991,"la2":30.254,"lo1":-89.0895,"lo2":-89.0444,"dy":0.0017,"dx":0.0017,"nx":28,"ny":28,"refTime":"2024-05-29T03:00:00:Z","depth":0,"parameterNumber":2,"parameterNumberName":"U-component_of_WINDS"},"data":[0,0,0,0,0,0,0,0,0,0,0,0,0,0,0,0,0,0,0,0,0,0,0,0,0,0,0,0,0,0,0,0,0,0,0,0,0,0,0,0,0,0,0,0,0,0,0,0,0,0,0,0,0,0,0,0,0,0,0.76,0.76,0,0.7618,0.7618,0.7618,0.7601,0.76,0.76,0.7599,0.7617,0.7618,0.7619,0,0,0,0,0,0,0,0,0,0,0,0,0,0.7549,0.755,0.76,0.76,0.76,0.7618,0.7618,0.7618,0.7601,0.76,0.7599,0.7599,0.7616,0.7617,0.7619,0,0,0,0,0,0,0,0,0,0,0,0,0,0.7569,0.755,0.76,0.7594,0.7593,0.7618,0.7618,0.7618,0.7601,0.76,0.7599,0.7598,0.7616,0.7617,0.7619,0.765,0,0,0.7624,0.7625,0,0,0,0,0,0,0,0,0.7568,0.7571,0.7594,0.7594,0.7594,0.7606,0.7606,0.7629,0.7601,0.7598,0.7599,0.7598,0.7614,0.7616,0.7621,0.765,0.7651,0.7624,0.7625,0.7626,0.7626,0,0,0,0,0,0,0,0.7567,0.757,0.7607,0.7595,0.7594,0.759,0.7591,0.761,0.7611,0.7598,0.7597,0.76,0.7613,0.762,0.7621,0.7651,0.7624,0.7626,0.7627,0.7627,0.7704,0.7705,0,0,0,0,0,0,0.7566,0.7569,0.7606,0.7607,0.7578,0.7591,0.7593,0.7603,0.7611,0.7612,0.76,0.7599,0.7617,0.7619,0.7622,0.7656,0.7626,0.7627,0.7628,0.7703,0.7704,0.7705,0,0,0,0,0,0,0.7565,0.757,0.7605,0.7588,0.7592,0.7593,0.7604,0.7604,0.761,0.7613,0.7613,0.7607,0.7617,0.762,0.7642,0.7657,0.7628,0.763,0.7702,0.7703,0.7705,0.7727,0,0,0,0,0,0,0.7564,0.7569,0.7582,0.7588,0.7593,0.7626,0.7605,0.7605,0.7613,0.7611,0.7619,0.7619,0.7616,0.764,0.7644,0.7659,0.7631,0.77,0.7702,0.7704,0.7725,0.7729,0.7732,0,0,0,0,0,0.7562,0.7587,0.7582,0.7587,0.7609,0.7627,0.763,0.7626,0.7614,0.7626,0.7627,0.7619,0.7655,0.7642,0.7647,0.7662,0.7699,0.7702,0.7704,0.7723,0.7728,0.7732,0,0,0,0,0,0,0.7583,0.7588,0.7583,0.7611,0.7619,0.7624,0.7639,0.7632,0.7643,0.7641,0.7635,0.7637,0.7661,0.7664,0.765,0.7691,0.7675,0.7678,0.7688,0.7693,0.7696,0.7694,0.7632,0,0,0,0,0,0.759,0.7605,0.761,0.7634,0.7638,0.7638,0.7646,0.7642,0.765,0.7653,0.7656,0.7664,0.7676,0.7685,0.7697,0.7725,0.7726,0.7738,0.7742,0.7745,0.7747,0.776,0.7765,0.7713,0.7713,0.7713,0,0,0.7607,0.7612,0.7622,0.7638,0.7644,0.7658,0.7641,0.7658,0.7668,0.7656,0.7677,0.7679,0.7687,0.7712,0.7723,0.7715,0.7762,0.7748,0.775,0.7751,0.7763,0.7768,0.7773,0.7715,0.7714,0.7714,0,0,0.7644,0.765,0.767,0.7675,0.7684,0.7683,0.7688,0.7694,0.7695,0.7716,0.7706,0.7719,0.7742,0.7747,0.7752,0.7789,0.7781,0.7794,0.7813,0.7826,0.783,0.7834,0.7845,0.7849,0.7796,0.7797,0.7797,0,0.7663,0.7685,0.7681,0.7698,0.7705,0.7694,0.7713,0.7719,0.7731,0.7735,0.7727,0.7753,0.7758,0.7783,0.7792,0.7798,0.7802,0.7792,0.783,0.7833,0.7837,0.7847,0.7852,0.7798,0.7798,0.7798,0.7797,0,0.7707,0.7723,0.7738,0.7749,0.7757,0.7776,0.7773,0.7783,0.7778,0.7778,0.7798,0.7804,0.7815,0.7821,0.7818,0.7845,0.784,0.7831,0.7814,0.7843,0.7853,0.7857,0.78,0.7799,0.7799,0.7799,0,0,0.7758,0.7765,0.7771,0.7774,0.7782,0.7793,0.7811,0.7822,0.7829,0.7837,0.785,0.7869,0.786,0.7867,0.7863,0.7874,0.7901,0.7864,0.7864,0.7869,0.7929,0.7935,0.794,0.7896,0.7897,0.7897,0.7928,0,0.7793,0.7823,0.7819,0.7847,0.7859,0.7849,0.7863,0.7869,0.7869,0.788,0.788,0.7892,0.7881,0.7884,0.7895,0.7895,0.7913,0.7893,0.7906,0.7907,0.7903,0.7945,0.7952,0.7981,0.7932,0.7933,0.7933,0,0.7839,0.7847,0.7876,0.788,0.7885,0.7899,0.7907,0.7918,0.7924,0.7923,0.793,0.7924,0.7939,0.7924,0.7945,0.7932,0.7937,0.7938,0.7939,0.7938,0.7921,0.7945,0.799,0.7994,0.794,0.7939,0.7939,0,0.787,0.7889,0.7908,0.7912,0.7918,0.7927,0.7929,0.7934,0.7941,0.7949,0.7952,0.7963,0.7968,0.7975,0.7971,0.7961,0.7992,0.7977,0.7991,0.7991,0.7997,0.7996,0.8042,0.8003,0.8003,0.8003,0.8003,0,0.7909,0.7926,0.7922,0.7934,0.7953,0.7948,0.7966,0.7968,0.7972,0.7983,0.7975,0.7985,0.798,0.799,0.7988,0.8004,0.8007,0.8006,0.8005,0.8006,0.8005,0.8008,0.8005,0.8004,0.8004,0.8004,0.8003,0,0.7946,0.7945,0.7964,0.7967,0.7968,0.7982,0.7984,0.7995,0.7994,0.8008,0.8011,0.801,0.802,0.8018,0.803,0.8028,0.8048,0.8046,0.8046,0.8045,0.8058,0.8056,0.8106,0.8111,0.8071,0.8071,0.8071,0,0.7971,0.7984,0.7988,0.7994,0.7997,0.8008,0.8014,0.801,0.8017,0.8023,0.8032,0.8043,0.805,0.8068,0.8068,0.8077,0.8073,0.809,0.8074,0.8074,0.8071,0.807,0.807,0.8092,0.8093,0.8093,0.8094,0,0.8013,0.8011,0.802,0.8029,0.8036,0.8043,0.8049,0.8054,0.805,0.8058,0.8069,0.8075,0.8087,0.8096,0.8104,0.8106,0.8099,0.8099,0.8102,0.8102,0.8101,0.81,0.8053,0.8097,0.8097,0.8097,0.8096,0.8096,0.8043,0.8053,0.8057,0.8067,0.8071,0.8076,0.8085,0.8085,0.8094,0.8103,0.81,0.8112,0.8116,0.8126,0.8129,0.8137,0.8131,0.8136,0.8137,0.8138,0.8139,0.8101,0.8139,0.8139,0.8139,0.8139,0.8139,0,0.8083,0.8085,0.8094,0.8102,0.8109,0.8102,0.8108,0.8114,0.8125,0.8129,0.8136,0.8148,0.8157,0.8157,0.8166,0.8172,0.8169,0.8174,0.8173,0.8173,0.8145,0.8141,0.8177,0.8177,0.8177,0.8177,0.8177,0.8177,0.8105,0.8121,0.8119,0.8137,0.8138,0.8149,0.8153,0.8157,0.816,0.8173,0.8181,0.8181,0.8183,0.8191,0.8199,0.8198,0.8201,0.8207,0.8206,0.8179,0.8176,0.8172,0.8167,0.8209,0.8209,0.8233,0.8233,0.8233]},{"header":{"parameterUnit":"m.s-1","parameterCategory":1,"la1":30.2991,"la2":30.254,"lo1":-89.0895,"lo2":-89.0444,"dy":0.0017,"dx":0.0017,"nx":28,"ny":28,"refTime":"2024-05-29T03:00:00:Z","depth":0,"parameterNumber":3,"parameterNumberName":"V-component_of_WINDS"},"data":[0,0,0,0,0,0,0,0,0,0,0,0,0,0,0,0,0,0,0,0,0,0,0,0,0,0,0,0,0,0,0,0,0,0,0,0,0,0,0,0,0,0,0,0,0,0,0,0,0,0,0,0,0,0,0,0,0,0,1.6084,1.6084,0,1.6073,1.6072,1.6072,1.6008,1.6007,1.6005,1.6004,1.5992,1.5993,1.5994,0,0,0,0,0,0,0,0,0,0,0,0,0,1.6049,1.605,1.6084,1.6084,1.6084,1.6073,1.6072,1.6072,1.6009,1.6007,1.6005,1.6003,1.5992,1.5993,1.5994,0,0,0,0,0,0,0,0,0,0,0,0,0,1.6054,1.6051,1.6084,1.6051,1.6048,1.6073,1.6072,1.6072,1.6009,1.6007,1.6004,1.6002,1.5991,1.5993,1.5995,1.6051,0,0,1.6,1.6,0,0,0,0,0,0,0,0,1.6054,1.6055,1.6056,1.6053,1.605,1.6039,1.6056,1.6065,1.6009,1.6024,1.6004,1.6001,1.601,1.601,1.6013,1.6051,1.605,1.6,1.6001,1.6002,1.6002,0,0,0,0,0,0,0,1.6054,1.6055,1.608,1.6056,1.6052,1.6036,1.6034,1.6057,1.603,1.6022,1.6018,1.6017,1.6008,1.6011,1.6012,1.605,1.6,1.6001,1.6002,1.6003,1.6131,1.6133,0,0,0,0,0,0,1.6058,1.6056,1.608,1.6079,1.6046,1.6038,1.6036,1.6045,1.6029,1.6025,1.6019,1.6014,1.6009,1.601,1.6011,1.6075,1.6002,1.6003,1.6004,1.6128,1.6131,1.6134,0,0,0,0,0,0,1.6058,1.6061,1.608,1.6066,1.6067,1.6041,1.6052,1.6046,1.605,1.6027,1.6022,1.6028,1.6008,1.6009,1.6041,1.6073,1.6004,1.6006,1.6125,1.6129,1.6132,1.6203,0,0,0,0,0,0,1.6057,1.6061,1.6083,1.6067,1.6068,1.6111,1.6054,1.6048,1.6053,1.6046,1.6034,1.603,1.6006,1.6039,1.6043,1.6074,1.6007,1.6122,1.6127,1.6131,1.6198,1.6208,1.6218,0,0,0,0,0,1.6056,1.6104,1.6084,1.6088,1.6095,1.6113,1.6114,1.6086,1.6056,1.6077,1.6062,1.603,1.6069,1.6043,1.6047,1.6079,1.612,1.6126,1.6131,1.6193,1.6206,1.6218,0,0,0,0,0,0,1.6125,1.6101,1.6079,1.6124,1.6121,1.6102,1.6129,1.6101,1.6107,1.6101,1.6065,1.6063,1.61,1.6093,1.6064,1.6132,1.6089,1.6095,1.6135,1.6147,1.6157,1.6158,1.6008,0,0,0,0,0,1.6145,1.6162,1.6141,1.6182,1.6181,1.6155,1.6162,1.614,1.6136,1.6135,1.6122,1.6119,1.613,1.6138,1.6148,1.6196,1.6191,1.622,1.623,1.6239,1.6245,1.6267,1.6279,1.6151,1.6151,1.6151,0,0,1.6188,1.6177,1.619,1.6195,1.6191,1.6208,1.6155,1.6176,1.6188,1.6138,1.6167,1.6157,1.6151,1.6191,1.6208,1.6186,1.6279,1.6245,1.6252,1.6254,1.6274,1.6286,1.6297,1.6155,1.6154,1.6154,0,0,1.6274,1.6268,1.6301,1.6296,1.6289,1.6271,1.6279,1.6264,1.6255,1.6284,1.6245,1.6259,1.628,1.6277,1.6278,1.6359,1.633,1.6363,1.6416,1.6439,1.6449,1.6457,1.6485,1.6496,1.6369,1.637,1.637,0,1.6328,1.6353,1.6321,1.6344,1.6347,1.6301,1.6333,1.633,1.6327,1.6329,1.6305,1.6328,1.6321,1.6358,1.6378,1.6381,1.6387,1.6365,1.645,1.6458,1.6466,1.6492,1.6503,1.6374,1.6373,1.6373,1.6372,0,1.6418,1.6436,1.6463,1.646,1.6466,1.6493,1.6465,1.6474,1.6451,1.6435,1.6464,1.6453,1.6458,1.6466,1.6444,1.6499,1.6486,1.6456,1.6413,1.6483,1.6506,1.6516,1.6379,1.6378,1.6377,1.6376,0,0,1.655,1.6526,1.6537,1.6533,1.6521,1.6534,1.6558,1.6563,1.6571,1.6569,1.6588,1.6606,1.6577,1.6578,1.6556,1.6576,1.6639,1.6543,1.6542,1.656,1.6697,1.6719,1.6731,1.6619,1.6621,1.6622,1.6697,0,1.6631,1.6671,1.6642,1.6688,1.6702,1.6658,1.6679,1.6673,1.6658,1.6668,1.6651,1.6664,1.6626,1.6626,1.6644,1.6628,1.6666,1.6622,1.6635,1.6636,1.6638,1.6743,1.6767,1.6838,1.6706,1.6708,1.6709,0,1.6732,1.6733,1.678,1.6762,1.6767,1.6787,1.6787,1.6797,1.6789,1.6776,1.6777,1.6748,1.6769,1.6727,1.6755,1.6726,1.6729,1.6722,1.6724,1.6724,1.6677,1.6745,1.686,1.6871,1.6723,1.6722,1.6721,0,1.6821,1.6835,1.6864,1.6862,1.6843,1.6857,1.6849,1.6839,1.6842,1.6842,1.6844,1.6847,1.6849,1.6851,1.6824,1.6795,1.6855,1.681,1.6845,1.6845,1.6859,1.6859,1.6976,1.6863,1.6863,1.6863,1.6862,0,1.6914,1.6944,1.6903,1.6921,1.6952,1.6918,1.695,1.6937,1.6928,1.6942,1.6903,1.6917,1.688,1.6889,1.6868,1.6893,1.6895,1.6885,1.6879,1.6888,1.6889,1.689,1.6884,1.6865,1.6865,1.6864,1.6864,0,1.702,1.6993,1.7022,1.7,1.6995,1.7019,1.6999,1.7015,1.6996,1.7014,1.7016,1.6988,1.6997,1.6969,1.6974,1.696,1.6997,1.6983,1.7,1.6995,1.703,1.7027,1.7151,1.7165,1.7044,1.7046,1.7047,0,1.7081,1.7103,1.7082,1.7088,1.7082,1.7093,1.7096,1.7062,1.7067,1.7057,1.7073,1.7079,1.7082,1.7098,1.7077,1.708,1.7066,1.7109,1.7066,1.7074,1.7065,1.7064,1.7065,1.7118,1.7119,1.7121,1.7122,0,1.7192,1.7177,1.7183,1.7183,1.7188,1.7187,1.7183,1.719,1.7154,1.7161,1.7169,1.7171,1.7175,1.718,1.7178,1.717,1.7139,1.7135,1.7143,1.7152,1.7161,1.7155,1.7023,1.7132,1.7131,1.7131,1.713,1.713,1.7276,1.7292,1.728,1.7287,1.728,1.7277,1.7289,1.7272,1.7278,1.7278,1.7257,1.7269,1.7258,1.7252,1.7246,1.7254,1.7234,1.7246,1.7249,1.7252,1.7258,1.716,1.7254,1.7254,1.7253,1.7253,1.7253,0,1.7384,1.7373,1.738,1.7375,1.738,1.735,1.7344,1.735,1.7361,1.7353,1.7355,1.7364,1.7368,1.7347,1.7349,1.7359,1.7345,1.7361,1.7359,1.7357,1.7276,1.7269,1.7372,1.7372,1.7372,1.7372,1.7372,1.7372,1.7441,1.7466,1.7449,1.747,1.7459,1.747,1.7468,1.7465,1.7458,1.7469,1.7472,1.7458,1.7444,1.7443,1.7446,1.7439,1.7441,1.7461,1.745,1.7375,1.7363,1.7352,1.7345,1.7462,1.7462,1.753,1.7531,1.7531]}]]